GW6425 Weather Reports


Display with metric or nautical units.
time (UTC)temp
F
wind
direction
speed
MPH
gust
MPH
rain 1hr
in
rain 24hr
in
rain mn
in
humidity
%
barometer
mb
20260509043156 84 173 2.0 3.0 0.00 0.00 0.46 89 1009.7
20260509042657 83 224 2.0 5.0 0.00 0.00 0.46 89 1009.8
20260509042156 83 173 2.0 3.0 0.00 0.00 0.46 89 1009.9
20260509041656 83 114 2.0 2.0 0.00 0.00 0.46 89 1010.0
20260509041156 82 212 1.0 1.0 0.00 0.00 0.46 91 1010.0
20260509040656 82 70 2.0 3.0 0.00 0.00 0.46 91 1010.1
20260509040156 82 62 2.0 2.0 0.00 0.00 0.46 93 1010.1
20260509035656 81 357 2.0 2.0 0.00 0.00 0.46 93 1010.0
20260509035156 80 103 1.0 2.0 0.00 0.00 0.46 94 1010.0
20260509034656 80 99 2.0 2.0 0.00 0.00 0.46 95 1009.9
20260509034156 80 78 2.0 2.0 0.00 0.00 0.46 95 1009.8
20260509033656 79 351 1.0 1.0 0.00 0.00 0.46 96 1009.7
20260509033159 79 77 2.0 3.0 0.00 0.00 0.46 96 1009.6
20260509032656 79 85 3.0 4.0 0.01 0.00 0.46 96 1009.6
20260509032156 79 53 2.0 2.0 0.03 0.00 0.46 97 1009.4
20260509031656 79 101 2.0 2.0 0.03 0.00 0.46 97 1009.3
20260509031156 79 85 2.0 3.0 0.04 0.00 0.46 97 1009.3
20260509030656 79 136 1.0 2.0 0.04 0.00 0.46 97 1009.2
20260509030156 79 26 1.0 1.0 0.16 0.00 0.46 97 1009.2
20260509025656 80 356 1.0 2.0 0.16 0.00 0.46 97 1009.1
20260509025156 80 12 1.0 2.0 0.16 0.00 0.46 97 1009.2
20260509024656 80 355 1.0 2.0 0.16 0.00 0.46 97 1009.3
20260509024156 80 102 0.0 1.0 0.16 0.00 0.46 97 1009.4
20260509023656 79 283 1.0 1.0 0.15 0.00 0.46 97 1009.3
20260509023156 79 266 1.0 2.0 0.15 0.00 0.46 97 1009.4
20260509022656 79 337 2.0 2.0 0.15 0.00 0.46 97 1009.7
20260509022157 79 313 2.0 2.0 0.12 0.00 0.45 97 1009.7
20260509021656 79 359 1.0 2.0 0.12 0.00 0.45 97 1009.6
20260509021156 79 0 1.0 2.0 0.00 0.00 0.45 97 1009.6
20260509020656 79 307 1.0 2.0 0.00 0.00 0.42 97 1009.5
20260509020156 79 238 1.0 1.0 0.00 0.00 0.42 97 1009.4
20260509015656 79 111 2.0 2.0 0.00 0.00 0.30 97 1009.4
20260509015156 79 32 1.0 2.0 0.00 0.00 0.30 97 1009.0
20260509014656 79 208 2.0 3.0 0.00 0.00 0.30 97 1009.0
20260509014156 79 268 1.0 1.0 0.00 0.00 0.30 97 1008.9
20260509013656 79 260 1.0 2.0 0.00 0.00 0.30 97 1008.8
20260509013156 79 246 2.0 2.0 0.00 0.00 0.30 97 1008.7
20260509012656 79 263 2.0 2.0 0.00 0.00 0.30 97 1008.5
20260509012157 79 232 1.0 1.0 0.00 0.00 0.30 97 1008.4
20260509011656 79 182 1.0 2.0 0.00 0.00 0.30 97 1008.2
20260509011157 79 258 1.0 2.0 0.00 0.00 0.30 97 1008.2
20260509010658 79 237 1.0 2.0 0.00 0.00 0.30 97 1008.1
20260509010156 79 212 2.0 2.0 0.00 0.00 0.30 97 1008.0
20260509005657 79 302 1.0 2.0 0.00 0.00 0.30 97 1007.9
20260509005156 79 229 2.0 3.0 0.00 0.00 0.30 97 1007.9
20260509004656 79 198 2.0 2.0 0.00 0.00 0.30 97 1007.8
20260509004156 79 229 2.0 2.0 0.00 0.00 0.30 97 1007.7
20260509003656 79 234 2.0 2.0 0.00 0.00 0.30 97 1007.6
20260509003157 79 209 2.0 2.0 0.00 0.00 0.30 96 1007.5
20260509002656 80 206 1.0 2.0 0.06 0.00 0.30 96 1007.4
20260509002156 80 217 2.0 2.0 0.06 0.00 0.30 96 1007.4
20260509001657 80 197 2.0 2.0 0.30 0.00 0.30 96 1007.3
20260509001156 80 217 1.0 2.0 0.30 0.00 0.30 96 1007.1
20260509000656 80 206 2.0 2.0 0.30 0.00 0.30 96 1007.1
20260509000156 80 207 3.0 3.0 0.30 0.00 0.30 96 1007.1
20260508235657 80 217 2.0 2.0 0.30 0.00 0.30 95 1007.2
20260508235158 80 237 1.0 2.0 0.30 0.00 0.30 95 1007.2
20260508234657 80 261 1.0 2.0 0.30 0.00 0.30 95 1007.2
20260508234156 80 212 2.0 2.0 0.30 0.00 0.30 95 1007.1
20260508233656 80 232 2.0 2.0 0.30 0.00 0.30 94 1007.2
20260508233156 80 207 2.0 2.0 0.30 0.00 0.30 94 1007.3
20260508232656 80 223 2.0 2.0 0.24 0.00 0.30 94 1007.3
20260508232156 81 249 1.0 2.0 0.24 0.00 0.30 93 1007.3
20260508231657 81 210 2.0 3.0 0.01 0.00 0.30 93 1007.4
20260508231156 81 341 2.0 2.0 0.00 0.00 0.24 92 1007.5
20260508230656 82 80 2.0 2.0 0.00 0.00 0.01 90 1007.4
20260508230156 82 107 1.0 1.0 0.00 0.00 0.00 89 1007.2
20260508225656 82 37 0.0 1.0 0.00 0.00 0.00 89 1007.1
20260508225201 82 28 1.0 2.0 0.00 0.00 0.00 88 1007.1
20260508224656 82 75 0.0 1.0 0.00 0.00 0.00 87 1006.9
20260508224156 82 328 1.0 1.0 0.00 0.00 0.00 86 1006.9
20260508223657 82 73 1.0 1.0 0.00 0.00 0.00 86 1006.9
20260508223157 82 0 1.0 2.0 0.00 0.00 0.00 86 1006.8
20260508222656 82 44 1.0 1.0 0.00 0.00 0.00 87 1006.9
20260508222157 82 34 2.0 2.0 0.00 0.00 0.00 87 1006.8
20260508221656 82 52 1.0 1.0 0.00 0.00 0.00 87 1006.8
20260508221156 82 63 1.0 1.0 0.00 0.00 0.00 87 1006.8
20260508220656 82 17 1.0 1.0 0.00 0.00 0.00 87 1006.8
20260508220156 82 27 1.0 2.0 0.00 0.00 0.00 87 1006.8
20260508215656 82 32 1.0 2.0 0.00 0.00 0.00 87 1006.8
20260508215158 82 49 1.0 1.0 0.00 0.00 0.00 87 1006.7
20260508214656 82 44 1.0 2.0 0.00 0.00 0.00 87 1006.7
20260508214156 82 104 0.0 2.0 0.00 0.00 0.00 87 1006.6
20260508213656 82 45 1.0 2.0 0.00 0.00 0.00 87 1006.6
20260508213156 82 39 1.0 2.0 0.00 0.00 0.00 87 1006.5
20260508212656 82 52 1.0 2.0 0.00 0.00 0.00 87 1006.5
20260508212156 82 60 1.0 2.0 0.00 0.00 0.00 87 1006.5
20260508211656 82 35 0.0 1.0 0.00 0.00 0.00 87 1006.7
20260508211157 82 44 1.0 2.0 0.00 0.00 0.00 87 1006.7
20260508210656 82 66 1.0 2.0 0.00 0.00 0.00 87 1006.7
20260508210156 82 21 1.0 2.0 0.00 0.00 0.00 87 1006.7
20260508205656 82 70 0.0 1.0 0.00 0.00 0.00 87 1006.8
20260508205156 83 75 1.0 1.0 0.00 0.00 0.00 87 1006.8
20260508204656 83 29 1.0 2.0 0.00 0.00 0.00 87 1006.8
20260508204157 83 56 1.0 2.0 0.00 0.00 0.00 87 1006.9
20260508203657 83 37 1.0 2.0 0.00 0.00 0.00 87 1007.0
20260508203157 83 43 1.0 2.0 0.00 0.00 0.00 87 1007.0
20260508202656 83 40 1.0 1.0 0.00 0.00 0.00 87 1007.0
20260508202157 83 15 1.0 2.0 0.00 0.00 0.00 87 1007.1
20260508201656 83 59 1.0 2.0 0.00 0.00 0.00 86 1007.2
20260508201156 83 54 1.0 1.0 0.00 0.00 0.00 86 1007.3
20260508200656 83 23 1.0 1.0 0.00 0.00 0.00 86 1007.4
20260508200156 83 13 1.0 1.0 0.00 0.00 0.00 86 1007.4
20260508195657 83 15 1.0 1.0 0.00 0.00 0.00 86 1007.4
20260508195156 83 72 1.0 2.0 0.00 0.00 0.00 85 1007.4
20260508194656 83 53 1.0 2.0 0.00 0.00 0.00 85 1007.6
20260508194156 83 50 1.0 2.0 0.00 0.00 0.00 85 1007.6
20260508193656 83 33 1.0 1.0 0.00 0.00 0.00 85 1007.7
20260508193156 83 45 0.0 2.0 0.00 0.00 0.00 85 1007.9
20260508192657 83 55 0.0 1.0 0.00 0.00 0.00 84 1008.0
20260508192156 83 62 1.0 2.0 0.00 0.00 0.00 84 1008.1
20260508191657 84 60 1.0 2.0 0.00 0.00 0.00 84 1008.1
20260508191156 84 23 1.0 2.0 0.00 0.00 0.00 83 1008.2
20260508190657 84 51 1.0 2.0 0.00 0.00 0.00 83 1008.2
20260508190156 84 49 1.0 2.0 0.00 0.00 0.00 83 1008.3
20260508185656 84 310 1.0 2.0 0.00 0.00 0.00 82 1008.4
20260508185156 84 359 1.0 2.0 0.00 0.00 0.00 82 1008.4
20260508184656 84 35 1.0 2.0 0.00 0.00 0.00 82 1008.4
20260508184157 84 54 1.0 2.0 0.00 0.00 0.00 82 1008.3
20260508183656 84 54 1.0 2.0 0.00 0.00 0.00 82 1008.3
20260508183157 84 358 0.0 1.0 0.00 0.00 0.00 82 1008.3
20260508182656 84 122 1.0 2.0 0.00 0.00 0.10 82 1008.4
20260508182156 84 65 1.0 2.0 0.00 0.00 0.10 82 1008.6
20260508181657 84 19 1.0 2.0 0.00 0.00 0.10 82 1008.6
20260508181157 84 353 2.0 2.0 0.00 0.00 0.10 81 1008.6
20260508180656 84 62 1.0 1.0 0.00 0.00 0.10 81 1008.7
20260508180157 84 117 1.0 2.0 0.00 0.00 0.10 81 1008.7
20260508175656 84 100 1.0 3.0 0.00 0.00 0.10 81 1008.7
20260508175156 84 91 2.0 3.0 0.00 0.00 0.10 81 1008.8
20260508174657 85 91 2.0 3.0 0.00 0.00 0.10 81 1008.9
20260508174158 85 139 2.0 2.0 0.00 0.00 0.10 81 1008.9
20260508173656 85 126 1.0 2.0 0.00 0.00 0.10 80 1008.9
20260508173156 85 109 2.0 4.0 0.00 0.00 0.10 80 1008.9
20260508172657 85 96 2.0 4.0 0.00 0.00 0.10 80 1009.0
20260508172157 85 98 2.0 3.0 0.00 0.00 0.10 80 1009.0
20260508171656 85 75 1.0 2.0 0.00 0.00 0.10 79 1009.0
20260508171156 85 90 1.0 2.0 0.00 0.00 0.10 79 1009.1
20260508170657 85 93 1.0 2.0 0.00 0.00 0.10 79 1009.1
20260508170156 85 104 2.0 3.0 0.00 0.00 0.10 79 1009.1
20260508165656 85 48 0.0 1.0 0.00 0.00 0.10 79 1009.1
20260508165203 85 140 1.0 2.0 0.00 0.00 0.10 79 1009.0
20260508164659 85 93 2.0 2.0 0.00 0.00 0.10 78 1009.0
20260508164157 85 112 1.0 2.0 0.00 0.00 0.10 79 1008.9
20260508163656 85 160 1.0 3.0 0.00 0.00 0.10 79 1008.9
20260508163157 85 111 1.0 3.0 0.00 0.00 0.10 79 1008.9
20260508162657 85 130 0.0 1.0 0.00 0.00 0.10 79 1008.8
20260508162156 85 118 1.0 2.0 0.00 0.00 0.10 79 1008.8
20260508161657 85 107 2.0 3.0 0.00 0.00 0.10 79 1008.8
20260508161156 85 98 1.0 2.0 0.00 0.00 0.10 79 1008.8
20260508160656 85 156 2.0 3.0 0.00 0.00 0.10 80 1008.9
20260508160204 85 91 1.0 2.0 0.00 0.00 0.10 80 1008.9
20260508155657 85 54 0.0 2.0 0.00 0.00 0.10 80 1008.9
20260508155157 84 88 2.0 3.0 0.00 0.00 0.10 80 1008.8
20260508154657 84 130 1.0 2.0 0.00 0.00 0.10 81 1008.8
20260508153751 84 81 1.0 1.0 0.00 0.00 0.10 81 1008.8
20260508153156 84 83 1.0 3.0 0.00 0.00 0.10 81 1008.7
20260508152657 84 93 2.0 3.0 0.00 0.00 0.10 81 1008.7
20260508152157 84 20 0.0 1.0 0.00 0.00 0.10 82 1008.6
20260508151656 84 154 1.0 2.0 0.00 0.00 0.10 82 1008.6
20260508151200 84 131 2.0 2.0 0.00 0.00 0.10 82 1008.5
20260508150657 85 123 2.0 3.0 0.00 0.00 0.10 82 1008.4
20260508150156 85 162 2.0 4.0 0.00 0.00 0.10 82 1008.5
20260508145656 85 107 1.0 2.0 0.00 0.00 0.10 81 1008.5
20260508145156 85 152 2.0 3.0 0.00 0.00 0.10 81 1008.5
20260508144659 85 83 1.0 3.0 0.00 0.00 0.10 81 1008.4
20260508144156 85 128 2.0 4.0 0.00 0.00 0.10 81 1008.4
20260508143657 85 163 1.0 4.0 0.00 0.00 0.10 81 1008.4
20260508143157 85 113 1.0 3.0 0.00 0.00 0.10 82 1008.3
20260508142658 85 137 1.0 2.0 0.00 0.00 0.10 82 1008.2
20260508142157 85 97 2.0 4.0 0.00 0.00 0.10 82 1008.1
20260508141657 85 107 2.0 4.0 0.00 0.00 0.10 81 1008.1
20260508141157 85 126 1.0 3.0 0.00 0.00 0.10 81 1008.0
20260508140657 85 102 2.0 3.0 0.00 0.00 0.10 79 1008.0
20260508140159 85 113 2.0 4.0 0.00 0.00 0.10 79 1007.9
20260508135701 85 111 2.0 3.0 0.00 0.00 0.10 80 1007.8
20260508135157 85 75 2.0 4.0 0.00 0.00 0.10 80 1007.8
20260508134657 85 128 3.0 5.0 0.00 0.00 0.10 80 1007.7
20260508134156 85 95 2.0 4.0 0.00 0.00 0.10 79 1007.7
20260508133657 85 106 2.0 6.0 0.00 0.00 0.10 80 1007.6
20260508133156 85 111 5.0 7.0 0.00 0.00 0.10 79 1007.5
20260508132657 85 122 2.0 4.0 0.00 0.00 0.10 78 1007.5
20260508132157 85 97 2.0 4.0 0.00 0.00 0.10 78 1007.5
20260508131657 85 109 2.0 5.0 0.00 0.00 0.10 77 1007.5
20260508131200 85 95 3.0 6.0 0.00 0.00 0.10 77 1007.5
20260508130657 85 96 2.0 4.0 0.00 0.00 0.10 77 1007.4
20260508130157 85 72 2.0 6.0 0.00 0.00 0.10 77 1007.4
20260508125657 85 99 4.0 6.0 0.00 0.00 0.10 78 1007.3
20260508125157 85 96 3.0 6.0 0.00 0.00 0.10 79 1007.3
20260508124656 85 76 3.0 6.0 0.00 0.00 0.10 79 1007.3
20260508124156 86 90 2.0 5.0 0.00 0.00 0.10 79 1007.3
20260508123656 86 103 3.0 6.0 0.00 0.00 0.10 79 1007.1
20260508123157 86 93 4.0 6.0 0.00 0.00 0.10 79 1007.1
20260508122700 86 80 2.0 4.0 0.00 0.00 0.10 78 1007.0
20260508122157 86 98 3.0 5.0 0.00 0.00 0.10 78 1007.0
20260508121657 86 245 2.0 5.0 0.00 0.00 0.10 79 1006.9
20260508121157 86 75 3.0 7.0 0.00 0.00 0.10 78 1006.8
20260508120657 86 108 2.0 4.0 0.00 0.00 0.10 78 1006.8
20260508120157 86 101 2.0 4.0 0.00 0.00 0.10 78 1006.7
20260508115656 86 83 4.0 8.0 0.00 0.00 0.10 76 1006.7
20260508115157 86 87 2.0 4.0 0.00 0.00 0.10 76 1006.7
20260508114656 86 111 4.0 7.0 0.00 0.00 0.10 75 1006.6
20260508114157 87 102 4.0 6.0 0.00 0.00 0.10 74 1006.6
20260508113656 87 55 2.0 5.0 0.00 0.00 0.10 73 1006.5
20260508113158 87 110 3.0 4.0 0.00 0.00 0.10 72 1006.6
20260508112656 87 113 3.0 7.0 0.00 0.00 0.10 71 1006.5
20260508112157 87 95 2.0 5.0 0.00 0.00 0.10 71 1006.5
20260508111701 88 88 2.0 4.0 0.00 0.00 0.10 69 1006.6
20260508111156 89 80 3.0 5.0 0.00 0.00 0.10 67 1006.5
20260508110657 89 105 4.0 7.0 0.00 0.00 0.10 66 1006.5
20260508110156 89 141 2.0 3.0 0.00 0.00 0.10 65 1006.5
20260508105656 89 2 3.0 5.0 0.00 0.00 0.10 64 1006.4
20260508105159 89 137 2.0 3.0 0.00 0.00 0.10 63 1006.3
20260508104658 89 97 2.0 7.0 0.00 0.00 0.10 63 1006.4
20260508104156 90 93 4.0 8.0 0.00 0.00 0.10 62 1006.4
20260508103656 90 91 5.0 9.0 0.00 0.00 0.10 61 1006.5
20260508103156 91 262 3.0 4.0 0.00 0.00 0.10 60 1006.5
20260508102656 90 101 2.0 4.0 0.00 0.00 0.10 61 1006.5
20260508102156 90 151 2.0 4.0 0.00 0.00 0.10 62 1006.6
20260508101656 90 357 3.0 6.0 0.00 0.00 0.10 62 1006.6
20260508101204 90 73 2.0 3.0 0.00 0.00 0.10 62 1006.6
20260508100659 89 113 3.0 5.0 0.00 0.00 0.10 64 1006.7
20260508100157 89 107 4.0 8.0 0.00 0.00 0.10 64 1006.6
20260508095657 89 85 3.0 6.0 0.00 0.00 0.10 64 1006.7
20260508095157 89 107 4.0 7.0 0.00 0.00 0.10 65 1006.6
20260508094656 89 56 3.0 6.0 0.00 0.00 0.10 64 1006.5
20260508094156 89 85 2.0 4.0 0.00 0.00 0.10 65 1006.5
20260508093659 89 113 5.0 10.0 0.00 0.00 0.10 65 1006.6
20260508093156 89 150 2.0 2.0 0.00 0.00 0.10 67 1006.7
20260508092656 89 81 4.0 7.0 0.00 0.00 0.10 67 1006.7
20260508092157 89 113 3.0 5.0 0.00 0.00 0.10 67 1006.7
20260508091657 88 110 4.0 5.0 0.00 0.00 0.10 69 1006.6
20260508091156 88 109 3.0 8.0 0.00 0.00 0.10 68 1006.7
20260508090656 87 99 3.0 6.0 0.00 0.00 0.10 70 1006.8
20260508090157 87 75 3.0 6.0 0.00 0.00 0.10 72 1006.8
20260508085657 87 93 3.0 6.0 0.00 0.00 0.10 72 1006.8
20260508085156 87 85 3.0 6.0 0.00 0.00 0.10 72 1006.7
20260508084656 87 100 2.0 4.0 0.00 0.00 0.10 72 1006.9
20260508084156 87 73 3.0 6.0 0.00 0.00 0.10 72 1007.0
20260508083657 87 91 3.0 8.0 0.00 0.00 0.10 73 1007.0
20260508082707 87 76 4.0 7.0 0.00 0.00 0.10 74 1007.0
20260508082157 87 102 2.0 3.0 0.00 0.00 0.10 75 1007.1
20260508081657 87 119 3.0 5.0 0.00 0.00 0.10 74 1007.3
20260508081200 87 88 3.0 6.0 0.00 0.00 0.10 74 1007.3
20260508080656 87 109 3.0 7.0 0.00 0.00 0.10 74 1007.3
20260508080157 87 91 4.0 7.0 0.00 0.00 0.10 74 1007.4
20260508075657 87 80 4.0 7.0 0.00 0.00 0.10 74 1007.4
20260508075156 87 86 3.0 5.0 0.00 0.00 0.10 73 1007.5
20260508074656 87 106 4.0 8.0 0.00 0.00 0.10 72 1007.6
20260508074156 87 119 4.0 5.0 0.00 0.00 0.10 76 1007.6
20260508073656 87 82 4.0 8.0 0.00 0.00 0.10 74 1007.6
20260508073156 87 112 3.0 5.0 0.00 0.00 0.10 76 1007.6
20260508072657 88 106 4.0 8.0 0.00 0.00 0.10 76 1007.7
20260508072156 87 187 2.0 4.0 0.00 0.00 0.10 77 1007.8
20260508071657 87 74 4.0 6.0 0.00 0.00 0.10 77 1008.0
20260508071157 87 57 3.0 8.0 0.00 0.00 0.10 77 1008.2
20260508070657 87 145 2.0 2.0 0.00 0.00 0.10 79 1008.3
20260508070157 86 106 3.0 6.0 0.00 0.00 0.10 79 1008.4
20260508065657 87 116 4.0 6.0 0.00 0.00 0.10 78 1008.6
20260508065200 86 116 2.0 6.0 0.00 0.00 0.10 79 1008.6
20260508064656 86 92 6.0 11.0 0.00 0.00 0.10 78 1008.8
20260508064156 86 122 4.0 6.0 0.00 0.00 0.10 80 1008.8
20260508063657 86 104 6.0 11.0 0.00 0.00 0.10 79 1008.9
20260508063156 86 94 6.0 11.0 0.00 0.00 0.10 79 1008.9
20260508062657 86 119 5.0 9.0 0.00 0.00 0.10 79 1008.9
20260508062158 86 92 5.0 8.0 0.00 0.00 0.10 80 1009.0
20260508061657 86 106 6.0 13.0 0.00 0.00 0.10 79 1009.2
20260508061157 86 105 4.0 9.0 0.10 0.00 0.10 79 1009.4
20260508060656 86 99 6.0 10.0 0.10 0.00 0.10 79 1009.4
20260508060156 86 96 4.0 9.0 0.10 0.00 0.10 79 1009.4
20260508055656 86 90 6.0 8.0 0.10 0.00 0.10 79 1009.4
20260508055156 86 95 6.0 12.0 0.10 0.00 0.10 81 1009.5
20260508054658 86 93 3.0 5.0 0.10 0.00 0.10 83 1009.5
20260508054157 86 113 4.0 5.0 0.10 0.00 0.10 83 1009.4
20260508053656 85 80 3.0 8.0 0.10 0.00 0.10 84 1009.4
20260508053156 85 115 5.0 10.0 0.10 0.00 0.10 85 1009.4
20260508052659 84 93 5.0 12.0 0.10 0.00 0.10 88 1009.1
20260508052157 84 116 3.0 11.0 0.10 0.00 0.10 91 1008.8
20260508051656 84 115 4.0 9.0 0.10 0.00 0.10 90 1009.1
20260508051156 85 94 6.0 11.0 0.10 0.00 0.10 88 1009.1
20260508050657 85 193 1.0 2.0 0.10 0.00 0.10 87 1009.1
20260508050156 86 150 3.0 5.0 0.00 0.00 0.10 85 1009.2
20260508045656 88 156 3.0 6.0 0.00 0.00 0.00 81 1009.0
20260508045156 89 97 3.0 4.0 0.00 0.00 0.00 76 1009.0
20260508044656 89 77 4.0 6.0 0.00 0.00 0.00 76 1009.1
20260508044157 89 89 3.0 6.0 0.00 0.00 0.00 76 1009.2
20260508043657 89 97 3.0 6.0 0.00 0.00 0.00 75 1009.4